"SCET";"TARGET";"ELECTRON_DENSITY";"ERROR_FLAG";"ELECTRON_DENSITY_ERROR";"FREQ_FCE";"MEASURED_VALUE";"MEASURED_ITEM";"FREQ_PLASMA";"FREQ_UPPER_HYBRID";"FREQ_R_EQUALS_ZERO";"FREQ_L_EQUALS_ZERO";"ORBIT_NUMBER";"SATURN_RADIUS";"SATURN_IAU_LONGITUDE";"SATURN_SLS4_S_LONGITUDE";"SATURN_SLS4_N_LONGITUDE";"SATURN_SLS5_S_LONGITUDE";"SATURN_SLS5_N_LONGITUDE";"SATURN_LOCAL_TIME";"SATURN_KRONOGRAPHIC_LATITUDE";"SATURN_MAGNETIC_LATITUDE";"SATURN_L";"SATURN_L_OFFSET";"SATURN_SOLAR_EQUATORIAL_X";"SATURN_SOLAR_EQUATORIAL_Y";"SATURN_SOLAR_EQUATORIAL_Z";"SATURN_ALTITUDE";"ENCELADUS_ENCOUNTER_NUMBER";"ENCELADUS_RADIUS";"ENCELADUS_COROTATIONAL_X";"ENCELADUS_COROTATIONAL_Y";"ENCELADUS_COROTATIONAL_Z";"ENCELADUS_TRUE_ANOMALY";"ENCELADUS_PERIAPSIS_TIME";"JUPITER_RADIUS";"JUPITER_SYSTEMIII_LONGITUDE";"JUPITER_MAGNETIC_LATITUDE";"JUPITER_MAGNETIC_LOCAL_TIME";"JUPITER_L";"IO_PHASE";"EARTH_RADIUS";"EARTH_MAGNETIC_LATITUDE";"EARTH_LOCAL_TIME";"EARTH_L"
"[UTC]";"[0=Saturn, 1=Enceladus, 2=Jupiter, 3=Earth]";"[cm-3]";"[0=automated, 1=manual]";"[normalized density error]";"[Hz]";"[Hz]";"[0=upper hybrid frequency, 1=plasma frequency cutoff]";"[Hz]";"[Hz]";"[Hz]";"[Hz}";"[0, A, B, C, 3, 4, ... , 292, 293]";"[Rs where 1Rs=60268km]";"[degrees]";"[degrees]";"[degrees]";"[degrees]";"[degrees]";"[hours]";"[degrees]";"[degrees where offset=2293km north]";"[Rs where 1Rs=60268km]";"[Rs where 1Rs=60268km and offset=2293km north]";"[Rs where 1Rs=60268km]";"[Rs where 1Rs=60268km]";"[Rs where 1Rs=60268km]";"[km where ellipsoid a,b=60268km and c=54364km]";"[E0, E1, E2, ... , E21, E22]";"[Renc where 1Renc=252.1km]";"[Renc where 1Renc=252.1km]";"[Renc where 1Renc=252.1km]";"[Renc where 1Renc=252.1km]";"[degrees]";"[UTC]";"[Rj where 1Rj=71492km]";"[degrees]";"[degrees using JRM09 model]";"[hours using JRM09 model]";"[Rj where 1Rj=71492km]";"[degrees]";"[Re where 1Re=6378.1366km]";"[degrees]";"[hours]";"[Re where 1Re=6378.1366km]"
2015-11-10T17:27:07.610Z;0;3.7460e+00;0;     0.221;   362.544;  17383.355; 0;  17379.574;  17383.355;  17561.791;  17199.248;225;  10.346; 264.608;;;  28.387; 130.376;   8.113;  -0.021;  -0.232;  10.346;  10.336;   5.436;  -8.803;  -0.004;;;;;;;;;;;;;;;;;;
2015-11-10T17:27:23.610Z;0;3.6620e+00;0;     0.215;   362.544;  17187.129; 0;  17183.305;  17187.129;  17365.533;  17002.988;225;  10.344; 264.750;;;  28.527; 130.517;   8.114;  -0.021;  -0.232;  10.344;  10.334;   5.436;  -8.800;  -0.004;;;;;;;;;;;;;;;;;;
2015-11-10T17:27:39.609Z;0;3.6620e+00;0;     0.225;   362.544;  17187.947; 0;  17184.123;  17187.947;  17366.352;  17003.807;225;  10.342; 264.891;;;  28.668; 130.659;   8.114;  -0.021;  -0.232;  10.342;  10.332;   5.437;  -8.798;  -0.004;;;;;;;;;;;;;;;;;;
2015-11-10T17:27:55.609Z;0;3.5760e+00;0;     0.216;   362.544;  16984.389; 0;  16980.520;  16984.389;  17162.758;  16800.215;225;  10.340; 265.033;;;  28.808; 130.800;   8.115;  -0.021;  -0.232;  10.340;  10.330;   5.437;  -8.795;  -0.004;;;;;;;;;;;;;;;;;;
2015-11-10T17:28:11.609Z;0;4.7020e+00;0;     0.199;   357.728;  19475.398; 0;  19472.113;  19475.398;  19651.799;  19294.070;225;  10.338; 265.175;;;  28.948; 130.941;   8.115;  -0.021;  -0.232;  10.338;  10.328;   5.437;  -8.793;  -0.004;;;;;;;;;;;;;;;;;;
2015-11-10T17:28:27.609Z;0;4.5150e+00;0;     0.151;   357.728;  19084.992; 0;  19081.639;  19084.992;  19261.342;  18903.613;225;  10.336; 265.317;;;  29.088; 131.082;   8.116;  -0.021;  -0.232;  10.336;  10.326;   5.437;  -8.790;  -0.004;;;;;;;;;;;;;;;;;;
2015-11-10T17:28:43.609Z;0;4.5010e+00;0;     0.175;   357.728;  19054.373; 0;  19051.016;  19054.373;  19230.719;  18872.990;225;  10.334; 265.459;;;  29.228; 131.223;   8.116;  -0.021;  -0.232;  10.334;  10.324;   5.438;  -8.788;  -0.004;;;;;;;;;;;;;;;;;;
2015-11-10T17:29:15.609Z;0;4.6970e+00;0;     0.185;   358.960;  19465.307; 0;  19461.996;  19465.307;  19642.305;  19283.344;225;  10.330; 265.743;;;  29.508; 131.505;   8.118;  -0.021;  -0.232;  10.330;  10.320;   5.438;  -8.783;  -0.004;;;;;;;;;;;;;;;;;;
2015-11-10T17:29:31.609Z;0;4.7230e+00;0;     0.184;   358.960;  19518.102; 0;  19514.801;  19518.102;  19695.105;  19336.146;225;  10.328; 265.885;;;  29.648; 131.646;   8.118;  -0.021;  -0.232;  10.328;  10.318;   5.438;  -8.780;  -0.004;;;;;;;;;;;;;;;;;;
2015-11-10T17:29:47.609Z;0;4.2920e+00;0;     0.177;   358.960;  18607.016; 0;  18603.553;  18607.016;  18783.898;  18424.939;225;  10.326; 266.027;;;  29.788; 131.787;   8.119;  -0.021;  -0.232;  10.326;  10.316;   5.438;  -8.778;  -0.004;;;;;;;;;;;;;;;;;;
2015-11-10T17:30:03.609Z;0;4.7960e+00;0;     0.200;   363.916;  19669.148; 0;  19665.781;  19669.148;  19848.582;  19484.666;225;  10.324; 266.168;;;  29.928; 131.928;   8.119;  -0.021;  -0.232;  10.324;  10.314;   5.439;  -8.775;  -0.004;;;;;;;;;;;;;;;;;;
2015-11-10T17:30:19.608Z;0;4.5800e+00;0;     0.181;   363.916;  19220.689; 0;  19217.244;  19220.689;  19400.062;  19036.146;225;  10.322; 266.310;;;  30.069; 132.068;   8.120;  -0.020;  -0.232;  10.322;  10.312;   5.439;  -8.773;  -0.004;;;;;;;;;;;;;;;;;;
2015-11-10T17:30:35.608Z;0;4.9800e+00;0;     0.190;   363.916;  20042.982; 0;  20039.678;  20042.982;  20222.463;  19858.547;225;  10.320; 266.452;;;  30.210; 132.207;   8.120;  -0.020;  -0.232;  10.320;  10.310;   5.439;  -8.770;  -0.004;;;;;;;;;;;;;;;;;;
2015-11-10T17:30:51.608Z;0;4.2780e+00;0;     0.186;   363.916;  18577.971; 0;  18574.406;  18577.971;  18757.256;  18393.340;225;  10.318; 266.594;;;  30.351; 132.347;   8.121;  -0.020;  -0.231;  10.318;  10.308;   5.439;  -8.768;  -0.004;;;;;;;;;;;;;;;;;;
2015-11-10T17:31:07.608Z;0;4.5870e+00;0;     0.207;   359.996;  19236.977; 0;  19233.607;  19236.977;  19414.447;  19054.451;225;  10.316; 266.736;;;  30.492; 132.486;   8.121;  -0.020;  -0.231;  10.316;  10.306;   5.440;  -8.765;  -0.004;;;;;;;;;;;;;;;;;;
2015-11-10T17:31:23.608Z;0;4.5930e+00;0;     0.186;   359.996;  19248.188; 0;  19244.820;  19248.188;  19425.660;  19065.664;225;  10.314; 266.878;;;  30.633; 132.625;   8.122;  -0.020;  -0.231;  10.314;  10.304;   5.440;  -8.763;  -0.004;;;;;;;;;;;;;;;;;;
2015-11-10T17:31:39.608Z;0;4.0960e+00;0;     0.194;   359.996;  18177.682; 0;  18174.117;  18177.682;  18355.006;  17995.010;225;  10.312; 267.020;;;  30.774; 132.765;   8.123;  -0.020;  -0.231;  10.312;  10.302;   5.440;  -8.760;  -0.004;;;;;;;;;;;;;;;;;;
2015-11-10T17:31:55.608Z;0;3.7920e+00;0;     0.218;   359.996;  17490.822; 0;  17487.117;  17490.822;  17668.041;  17308.045;225;  10.310; 267.161;;;  30.915; 132.904;   8.123;  -0.020;  -0.231;  10.310;  10.300;   5.440;  -8.758;  -0.004;;;;;;;;;;;;;;;;;;
2015-11-10T17:32:27.608Z;0;4.6300e+00;0;     0.179;   360.668;  19326.148; 0;  19322.783;  19326.148;  19503.959;  19143.291;225;  10.306; 267.445;;;  31.198; 133.182;   8.124;  -0.020;  -0.231;  10.306;  10.296;   5.441;  -8.753;  -0.004;;;;;;;;;;;;;;;;;;
2015-11-10T17:33:31.607Z;0;3.5220e+00;0;     0.190;   369.068;  16856.219; 0;  16852.178;  16856.219;  17037.723;  16668.654;225;  10.298; 268.012;;;  31.762; 133.738;   8.126;  -0.019;  -0.231;  10.298;  10.288;   5.441;  -8.743;  -0.003;;;;;;;;;;;;;;;;;;
2015-11-10T17:33:47.607Z;0;4.7550e+00;0;     0.185;   369.068;  19584.328; 0;  19580.850;  19584.328;  19766.254;  19397.186;225;  10.296; 268.154;;;  31.903; 133.876;   8.127;  -0.019;  -0.231;  10.296;  10.286;   5.442;  -8.741;  -0.003;;;;;;;;;;;;;;;;;;
2015-11-10T17:33:55.607Z;0;4.8080e+00;0;     0.207;   369.068;  19694.918; 0;  19691.459;  19694.918;  19876.857;  19507.791;225;  10.295; 268.225;;;  31.973; 133.946;   8.127;  -0.019;  -0.231;  10.295;  10.285;   5.442;  -8.739;  -0.003;;;;;;;;;;;;;;;;;;
2015-11-10T17:34:03.607Z;0;4.7680e+00;0;     0.195;   362.572;  19611.436; 0;  19608.084;  19611.436;  19790.207;  19427.635;225;  10.294; 268.296;;;  32.044; 134.015;   8.128;  -0.019;  -0.231;  10.294;  10.284;   5.442;  -8.738;  -0.003;;;;;;;;;;;;;;;;;;
2015-11-10T17:34:19.607Z;0;4.7370e+00;0;     0.178;   362.572;  19547.504; 0;  19544.141;  19547.504;  19726.268;  19363.695;225;  10.292; 268.438;;;  32.185; 134.154;   8.128;  -0.019;  -0.231;  10.292;  10.282;   5.442;  -8.736;  -0.003;;;;;;;;;;;;;;;;;;
2015-11-10T17:34:27.607Z;0;4.2680e+00;0;     0.290;   362.572;  18556.080; 0;  18552.537;  18556.080;  18734.709;  18372.137;225;  10.291; 268.509;;;  32.255; 134.223;   8.128;  -0.019;  -0.231;  10.291;  10.281;   5.442;  -8.734;  -0.003;;;;;;;;;;;;;;;;;;
2015-11-10T17:34:35.607Z;0;4.0980e+00;0;     0.176;   362.572;  18181.727; 0;  18178.111;  18181.727;  18360.301;  17997.729;225;  10.290; 268.580;;;  32.326; 134.292;   8.129;  -0.019;  -0.231;  10.290;  10.280;   5.442;  -8.733;  -0.003;;;;;;;;;;;;;;;;;;
2015-11-10T17:34:43.607Z;0;4.6720e+00;0;     0.187;   362.572;  19414.258; 0;  19410.871;  19414.258;  19593.004;  19230.432;225;  10.289; 268.651;;;  32.396; 134.361;   8.129;  -0.019;  -0.231;  10.289;  10.279;   5.442;  -8.732;  -0.003;;;;;;;;;;;;;;;;;;
2015-11-10T17:34:51.607Z;0;4.7650e+00;0;     0.218;   362.572;  19605.432; 0;  19602.078;  19605.432;  19784.203;  19421.631;225;  10.288; 268.721;;;  32.467; 134.431;   8.129;  -0.019;  -0.231;  10.288;  10.278;   5.443;  -8.731;  -0.003;;;;;;;;;;;;;;;;;;
2015-11-10T17:34:59.607Z;0;4.4590e+00;0;     0.192;   362.572;  18965.746; 0;  18962.279;  18965.746;  19144.434;  18781.861;225;  10.287; 268.792;;;  32.537; 134.500;   8.129;  -0.019;  -0.231;  10.287;  10.277;   5.443;  -8.729;  -0.003;;;;;;;;;;;;;;;;;;
2015-11-10T17:40:19.605Z;0;4.2170e+00;0;     0.181;   382.816;  18443.986; 0;  18440.014;  18443.986;  18632.414;  18249.598;225;  10.247; 271.628;;;  35.356; 137.255;   8.141;  -0.017;  -0.230;  10.247;  10.237;   5.447;  -8.680;  -0.003;;;;;;;;;;;;;;;;;;
2015-11-10T17:40:27.605Z;0;4.1150e+00;0;     0.211;   382.816;  18220.400; 0;  18216.379;  18220.400;  18408.791;  18025.977;225;  10.246; 271.699;;;  35.427; 137.325;   8.141;  -0.017;  -0.230;  10.246;  10.236;   5.447;  -8.678;  -0.003;;;;;;;;;;;;;;;;;;
2015-11-10T17:40:35.605Z;0;4.1200e+00;0;     0.180;   382.816;  18231.072; 0;  18227.053;  18231.072;  18419.465;  18036.650;225;  10.245; 271.770;;;  35.497; 137.395;   8.141;  -0.017;  -0.230;  10.245;  10.235;   5.447;  -8.677;  -0.003;;;;;;;;;;;;;;;;;;
2015-11-10T17:42:11.604Z;0;3.6980e+00;0;     0.204;   387.212;  17274.111; 0;  17269.771;  17274.111;  17464.463;  17077.250;225;  10.233; 272.620;;;  36.343; 138.234;   8.145;  -0.017;  -0.230;  10.233;  10.223;   5.448;  -8.662;  -0.003;;;;;;;;;;;;;;;;;;
2015-11-10T17:42:35.604Z;0;3.7980e+00;0;     0.228;   387.212;  17504.955; 0;  17500.672;  17504.955;  17695.350;  17308.137;225;  10.230; 272.833;;;  36.554; 138.445;   8.145;  -0.017;  -0.230;  10.230;  10.220;   5.449;  -8.658;  -0.003;;;;;;;;;;;;;;;;;;
2015-11-10T17:42:51.604Z;0;4.1020e+00;0;     0.218;   387.212;  18190.975; 0;  18186.854;  18190.975;  18381.490;  17994.277;225;  10.228; 272.974;;;  36.695; 138.585;   8.146;  -0.016;  -0.230;  10.228;  10.218;   5.449;  -8.656;  -0.003;;;;;;;;;;;;;;;;;;
2015-11-10T17:43:07.604Z;0;4.2730e+00;0;     0.194;   390.012;  18566.744; 0;  18562.646;  18566.744;  18758.678;  18368.666;225;  10.226; 273.116;;;  36.836; 138.725;   8.147;  -0.016;  -0.230;  10.226;  10.216;   5.449;  -8.653;  -0.003;;;;;;;;;;;;;;;;;;
2015-11-10T17:43:15.604Z;0;4.2080e+00;0;     0.196;   390.012;  18424.545; 0;  18420.416;  18424.545;  18616.455;  18226.443;225;  10.225; 273.187;;;  36.906; 138.795;   8.147;  -0.016;  -0.230;  10.225;  10.215;   5.449;  -8.652;  -0.003;;;;;;;;;;;;;;;;;;
2015-11-10T17:44:03.603Z;0;3.6210e+00;0;     0.206;   382.732;  17091.738; 0;  17087.453;  17091.738;  17279.891;  16897.158;225;  10.219; 273.612;;;  37.329; 139.217;   8.148;  -0.016;  -0.229;  10.219;  10.209;   5.450;  -8.645;  -0.003;;;;;;;;;;;;;;;;;;
2015-11-10T17:44:19.603Z;0;4.1740e+00;0;     0.199;   382.732;  18350.717; 0;  18346.725;  18350.717;  18539.090;  18156.357;225;  10.217; 273.754;;;  37.470; 139.358;   8.149;  -0.016;  -0.229;  10.217;  10.207;   5.450;  -8.642;  -0.003;;;;;;;;;;;;;;;;;;
2015-11-10T17:44:43.603Z;0;4.6640e+00;0;     0.197;   382.732;  19398.102; 0;  19394.326;  19398.102;  19586.635;  19203.904;225;  10.214; 273.966;;;  37.681; 139.569;   8.150;  -0.016;  -0.229;  10.214;  10.204;   5.450;  -8.638;  -0.003;;;;;;;;;;;;;;;;;;
2015-11-10T17:45:31.603Z;0;5.0090e+00;0;     0.196;   392.896;  20101.908; 0;  20098.068;  20101.908;  20295.477;  19902.580;225;  10.208; 274.391;;;  38.104; 139.992;   8.152;  -0.016;  -0.229;  10.208;  10.198;   5.451;  -8.631;  -0.003;;;;;;;;;;;;;;;;;;
2015-11-10T17:45:39.603Z;0;4.6890e+00;0;     0.202;   392.896;  19449.254; 0;  19445.285;  19449.254;  19642.725;  19249.830;225;  10.207; 274.462;;;  38.174; 140.062;   8.152;  -0.016;  -0.229;  10.207;  10.197;   5.451;  -8.630;  -0.003;;;;;;;;;;;;;;;;;;
2015-11-10T17:45:47.603Z;0;4.9010e+00;0;     0.237;   392.896;  19884.695; 0;  19880.812;  19884.695;  20078.232;  19685.336;225;  10.206; 274.533;;;  38.245; 140.133;   8.152;  -0.016;  -0.229;  10.206;  10.196;   5.451;  -8.628;  -0.003;;;;;;;;;;;;;;;;;;
2015-11-10T17:46:03.602Z;0;4.6440e+00;0;     0.176;   387.996;  19354.973; 0;  19351.084;  19354.973;  19546.055;  19158.059;225;  10.204; 274.675;;;  38.386; 140.274;   8.153;  -0.015;  -0.229;  10.204;  10.194;   5.451;  -8.626;  -0.003;;;;;;;;;;;;;;;;;;
2015-11-10T17:47:31.602Z;0;3.8800e+00;0;     0.194;   395.108;  17692.748; 0;  17688.336;  17692.748;  17886.992;  17491.885;225;  10.193; 275.454;;;  39.160; 141.051;   8.156;  -0.015;  -0.229;  10.193;  10.183;   5.453;  -8.612;  -0.003;;;;;;;;;;;;;;;;;;
2015-11-10T17:47:47.602Z;0;4.6020e+00;0;     0.171;   395.108;  19267.381; 0;  19263.330;  19267.381;  19461.896;  19066.789;225;  10.191; 275.595;;;  39.301; 141.192;   8.156;  -0.015;  -0.229;  10.191;  10.181;   5.453;  -8.610;  -0.003;;;;;;;;;;;;;;;;;;
2015-11-10T17:47:55.602Z;0;4.6930e+00;0;     0.204;   395.108;  19457.609; 0;  19453.598;  19457.609;  19652.154;  19257.047;225;  10.190; 275.666;;;  39.371; 141.263;   8.157;  -0.015;  -0.229;  10.190;  10.180;   5.453;  -8.608;  -0.003;;;;;;;;;;;;;;;;;;
2015-11-10T17:48:19.602Z;0;4.9720e+00;0;     0.189;   387.072;  20026.561; 0;  20022.820;  20026.561;  20217.291;  19830.219;225;  10.187; 275.879;;;  39.583; 141.476;   8.158;  -0.015;  -0.229;  10.187;  10.177;   5.453;  -8.605;  -0.003;;;;;;;;;;;;;;;;;;
2015-11-10T17:48:43.601Z;0;4.6320e+00;0;     0.187;   387.072;  19331.068; 0;  19327.193;  19331.068;  19521.697;  19134.625;225;  10.184; 276.091;;;  39.794; 141.688;   8.158;  -0.015;  -0.229;  10.184;  10.174;   5.453;  -8.601;  -0.003;;;;;;;;;;;;;;;;;;
2015-11-10T17:48:51.601Z;0;4.7260e+00;0;     0.175;   387.072;  19526.412; 0;  19522.576;  19526.412;  19717.070;  19329.998;225;  10.183; 276.162;;;  39.864; 141.759;   8.159;  -0.015;  -0.229;  10.183;  10.173;   5.454;  -8.600;  -0.003;;;;;;;;;;;;;;;;;;
2015-11-10T17:49:07.601Z;0;3.9290e+00;0;     0.182;   393.708;  17804.229; 0;  17799.875;  17804.229;  17997.818;  17604.109;225;  10.181; 276.304;;;  40.005; 141.901;   8.159;  -0.015;  -0.229;  10.181;  10.171;   5.454;  -8.597;  -0.003;;;;;;;;;;;;;;;;;;
2015-11-10T17:49:31.601Z;0;4.6120e+00;0;     0.207;   393.708;  19288.988; 0;  19284.971;  19288.988;  19482.828;  19089.121;225;  10.178; 276.516;;;  40.216; 142.114;   8.160;  -0.014;  -0.229;  10.178;  10.168;   5.454;  -8.593;  -0.003;;;;;;;;;;;;;;;;;;
2015-11-10T17:49:39.601Z;0;4.5880e+00;0;     0.191;   393.708;  19237.990; 0;  19233.961;  19237.990;  19431.822;  19038.115;225;  10.177; 276.587;;;  40.287; 142.185;   8.160;  -0.014;  -0.228;  10.177;  10.167;   5.454;  -8.592;  -0.003;;;;;;;;;;;;;;;;;;
2015-11-10T17:50:27.601Z;0;4.5170e+00;0;     0.205;   395.500;  19089.115; 0;  19085.018;  19089.115;  19283.793;  18888.293;225;  10.171; 277.012;;;  40.709; 142.609;   8.162;  -0.014;  -0.228;  10.171;  10.161;   5.455;  -8.585;  -0.002;;;;;;;;;;;;;;;;;;
2015-11-10T17:50:51.601Z;0;4.6500e+00;0;     0.192;   395.500;  19367.836; 0;  19363.797;  19367.836;  19562.557;  19167.057;225;  10.168; 277.224;;;  40.920; 142.820;   8.163;  -0.014;  -0.228;  10.168;  10.158;   5.455;  -8.581;  -0.002;;;;;;;;;;;;;;;;;;
2015-11-10T17:50:59.601Z;0;5.0690e+00;0;     0.188;   395.500;  20222.213; 0;  20218.346;  20222.213;  20417.062;  20021.562;225;  10.167; 277.295;;;  40.991; 142.891;   8.163;  -0.014;  -0.228;  10.167;  10.157;   5.455;  -8.580;  -0.002;;;;;;;;;;;;;;;;;;
2015-11-10T17:51:07.601Z;0;4.6370e+00;0;     0.183;   389.984;  19341.053; 0;  19337.121;  19341.053;  19533.096;  19143.111;225;  10.166; 277.366;;;  41.061; 142.961;   8.163;  -0.014;  -0.228;  10.166;  10.156;   5.455;  -8.578;  -0.002;;;;;;;;;;;;;;;;;;
2015-11-10T17:51:15.600Z;0;4.9850e+00;0;     0.204;   389.984;  20053.699; 0;  20049.906;  20053.699;  20245.848;  19855.863;225;  10.165; 277.437;;;  41.132; 143.032;   8.164;  -0.014;  -0.228;  10.165;  10.155;   5.455;  -8.577;  -0.002;;;;;;;;;;;;;;;;;;
2015-11-10T17:51:23.600Z;0;4.4820e+00;0;     0.164;   389.984;  19015.629; 0;  19011.629;  19015.629;  19207.621;  18817.637;225;  10.164; 277.507;;;  41.202; 143.102;   8.164;  -0.014;  -0.228;  10.164;  10.154;   5.455;  -8.576;  -0.002;;;;;;;;;;;;;;;;;;
2015-11-10T17:51:47.600Z;0;4.7190e+00;0;     0.199;   389.984;  19510.447; 0;  19506.549;  19510.447;  19702.516;  19312.531;225;  10.161; 277.720;;;  41.413; 143.313;   8.165;  -0.014;  -0.228;  10.161;  10.151;   5.456;  -8.572;  -0.002;;;;;;;;;;;;;;;;;;
2015-11-10T17:52:11.600Z;0;4.6950e+00;0;     0.194;   392.784;  19461.656; 0;  19457.691;  19461.656;  19655.076;  19262.291;225;  10.158; 277.932;;;  41.624; 143.524;   8.166;  -0.014;  -0.228;  10.158;  10.148;   5.456;  -8.568;  -0.002;;;;;;;;;;;;;;;;;;
2015-11-10T17:52:51.600Z;0;4.5960e+00;0;     0.189;   392.784;  19254.695; 0;  19250.689;  19254.695;  19448.082;  19055.299;225;  10.153; 278.286;;;  41.976; 143.876;   8.167;  -0.013;  -0.228;  10.153;  10.143;   5.457;  -8.562;  -0.002;;;;;;;;;;;;;;;;;;
2015-11-10T17:52:59.600Z;0;4.6310e+00;0;     0.186;   392.784;  19328.242; 0;  19324.250;  19328.242;  19521.641;  19128.857;225;  10.152; 278.357;;;  42.047; 143.947;   8.167;  -0.013;  -0.228;  10.152;  10.142;   5.457;  -8.561;  -0.002;;;;;;;;;;;;;;;;;;
2015-11-10T17:53:15.600Z;0;4.3240e+00;0;     0.223;   397.908;  18676.621; 0;  18672.383;  18676.621;  18872.396;  18474.488;225;  10.150; 278.499;;;  42.188; 144.088;   8.168;  -0.013;  -0.228;  10.150;  10.140;   5.457;  -8.558;  -0.002;;;;;;;;;;;;;;;;;;
2015-11-10T17:53:23.600Z;0;4.3260e+00;0;     0.157;   397.908;  18681.648; 0;  18677.410;  18681.648;  18877.424;  18479.516;225;  10.149; 278.569;;;  42.258; 144.158;   8.168;  -0.013;  -0.228;  10.149;  10.139;   5.457;  -8.557;  -0.002;;;;;;;;;;;;;;;;;;
2015-11-10T17:53:31.600Z;0;4.7880e+00;0;     0.205;   397.908;  19652.809; 0;  19648.779;  19652.809;  19848.742;  19450.834;225;  10.148; 278.640;;;  42.328; 144.228;   8.169;  -0.013;  -0.228;  10.148;  10.138;   5.457;  -8.556;  -0.002;;;;;;;;;;;;;;;;;;
2015-11-10T17:53:39.600Z;0;4.4270e+00;0;     0.224;   397.908;  18897.516; 0;  18893.326;  18897.516;  19093.328;  18695.420;225;  10.147; 278.711;;;  42.399; 144.299;   8.169;  -0.013;  -0.228;  10.147;  10.137;   5.457;  -8.555;  -0.002;;;;;;;;;;;;;;;;;;
2015-11-10T17:53:47.600Z;0;4.4700e+00;0;     0.152;   397.908;  18990.340; 0;  18986.170;  18990.340;  19186.168;  18788.260;225;  10.146; 278.782;;;  42.469; 144.369;   8.169;  -0.013;  -0.228;  10.146;  10.136;   5.457;  -8.553;  -0.002;;;;;;;;;;;;;;;;;;
2015-11-10T17:53:55.599Z;0;4.6390e+00;0;     0.206;   397.908;  19344.504; 0;  19340.410;  19344.504;  19540.389;  19142.480;225;  10.145; 278.852;;;  42.539; 144.439;   8.169;  -0.013;  -0.228;  10.145;  10.135;   5.457;  -8.552;  -0.002;;;;;;;;;;;;;;;;;;
2015-11-10T17:54:19.599Z;0;4.9390e+00;0;     0.102;   397.544;  19960.076; 0;  19956.117;  19960.076;  20155.879;  19758.334;225;  10.142; 279.065;;;  42.751; 144.651;   8.170;  -0.013;  -0.228;  10.142;  10.132;   5.458;  -8.548;  -0.002;;;;;;;;;;;;;;;;;;
2015-11-10T17:54:35.599Z;0;4.5670e+00;0;     0.175;   397.544;  19195.027; 0;  19190.910;  19195.027;  19390.711;  18993.168;225;  10.140; 279.206;;;  42.891; 144.791;   8.171;  -0.013;  -0.228;  10.140;  10.130;   5.458;  -8.546;  -0.002;;;;;;;;;;;;;;;;;;
2015-11-10T17:54:43.599Z;0;4.6340e+00;0;     0.201;   397.544;  19335.125; 0;  19331.037;  19335.125;  19530.832;  19133.287;225;  10.139; 279.277;;;  42.962; 144.862;   8.171;  -0.013;  -0.228;  10.139;  10.129;   5.458;  -8.545;  -0.002;;;;;;;;;;;;;;;;;;
2015-11-10T17:54:51.599Z;0;4.5930e+00;0;     0.180;   397.544;  19248.764; 0;  19244.658;  19248.764;  19444.457;  19046.912;225;  10.138; 279.348;;;  43.032; 144.932;   8.171;  -0.013;  -0.228;  10.138;  10.128;   5.458;  -8.543;  -0.002;;;;;;;;;;;;;;;;;;
2015-11-10T17:55:15.599Z;0;4.6340e+00;0;     0.197;   393.792;  19335.801; 0;  19331.791;  19335.801;  19529.689;  19135.896;225;  10.135; 279.560;;;  43.243; 145.143;   8.172;  -0.013;  -0.228;  10.135;  10.125;   5.458;  -8.540;  -0.002;;;;;;;;;;;;;;;;;;
2015-11-10T17:55:47.599Z;0;5.0030e+00;0;     0.200;   393.792;  20090.039; 0;  20086.180;  20090.039;  20284.041;  19890.248;225;  10.131; 279.843;;;  43.525; 145.425;   8.173;  -0.012;  -0.227;  10.131;  10.121;   5.459;  -8.535;  -0.002;;;;;;;;;;;;;;;;;;
2015-11-10T17:56:27.598Z;0;4.2020e+00;0;     0.188;   394.184;  18411.129; 0;  18406.908;  18411.129;  18605.057;  18210.871;225;  10.126; 280.197;;;  43.876; 145.776;   8.175;  -0.012;  -0.227;  10.126;  10.116;   5.459;  -8.528;  -0.002;;;;;;;;;;;;;;;;;;
2015-11-10T17:56:35.598Z;0;4.5070e+00;0;     0.197;   394.184;  19067.768; 0;  19063.693;  19067.768;  19261.803;  18867.619;225;  10.125; 280.268;;;  43.947; 145.847;   8.175;  -0.012;  -0.227;  10.125;  10.115;   5.459;  -8.527;  -0.002;;;;;;;;;;;;;;;;;;
2015-11-10T17:56:43.598Z;0;4.4070e+00;0;     0.218;   394.184;  18856.117; 0;  18851.996;  18856.117;  19050.119;  18655.936;225;  10.124; 280.339;;;  44.017; 145.917;   8.175;  -0.012;  -0.227;  10.124;  10.114;   5.459;  -8.526;  -0.002;;;;;;;;;;;;;;;;;;
2015-11-10T17:57:15.598Z;0;4.1910e+00;0;     0.185;   401.716;  18388.615; 0;  18384.227;  18388.615;  18586.182;  18184.467;225;  10.120; 280.622;;;  44.299; 146.199;   8.177;  -0.012;  -0.227;  10.120;  10.110;   5.460;  -8.521;  -0.002;;;;;;;;;;;;;;;;;;
2015-11-10T17:58:35.598Z;0;4.2440e+00;0;     0.185;   407.876;  18504.404; 0;  18499.908;  18504.404;  18704.971;  18297.094;225;  10.110; 281.329;;;  45.002; 146.902;   8.180;  -0.011;  -0.227;  10.110;  10.100;   5.461;  -8.508;  -0.002;;;;;;;;;;;;;;;;;;
2015-11-10T17:58:43.598Z;0;4.9670e+00;0;     0.185;   407.876;  20018.076; 0;  20013.920;  20018.076;  20218.896;  19811.021;225;  10.109; 281.400;;;  45.073; 146.973;   8.180;  -0.011;  -0.227;  10.109;  10.099;   5.461;  -8.507;  -0.002;;;;;;;;;;;;;;;;;;
2015-11-10T17:58:51.598Z;0;4.8240e+00;0;     0.226;   407.876;  19728.475; 0;  19724.258;  19728.475;  19929.250;  19521.375;225;  10.108; 281.471;;;  45.143; 147.043;   8.180;  -0.011;  -0.227;  10.108;  10.098;   5.461;  -8.506;  -0.002;;;;;;;;;;;;;;;;;;
2015-11-10T17:58:59.598Z;0;4.7520e+00;0;     0.205;   407.876;  19578.957; 0;  19574.709;  19578.957;  19779.709;  19371.832;225;  10.107; 281.542;;;  45.213; 147.113;   8.180;  -0.011;  -0.227;  10.107;  10.097;   5.461;  -8.504;  -0.002;;;;;;;;;;;;;;;;;;
2015-11-10T17:59:07.597Z;0;4.5790e+00;0;     0.170;   410.396;  19220.385; 0;  19216.002;  19220.385;  19422.297;  19011.900;225;  10.106; 281.612;;;  45.284; 147.184;   8.181;  -0.011;  -0.227;  10.106;  10.096;   5.461;  -8.503;  -0.002;;;;;;;;;;;;;;;;;;
2015-11-10T17:59:39.597Z;0;3.7780e+00;0;     0.193;   410.396;  17458.408; 0;  17453.584;  17458.408;  17659.988;  17249.592;225;  10.102; 281.895;;;  45.565; 147.465;   8.182;  -0.011;  -0.227;  10.102;  10.092;   5.462;  -8.498;  -0.002;;;;;;;;;;;;;;;;;;